TimeMDT,TemperatureF,Dew PointF,Humidity,Sea Level PressureIn,VisibilityMPH,Wind Direction,Wind SpeedMPH,Gust SpeedMPH,PrecipitationIn,Events,Conditions,WindDirDegrees,DateUTC
12:56 AM,27.0,12.0,53,29.99,-9999.0,Calm,Calm,-,N/A,,Unknown,0,2012-10-09 06:56:00
1:56 AM,26.1,12.9,58,29.99,-9999.0,Calm,Calm,-,N/A,,Unknown,0,2012-10-09 07:56:00
2:56 AM,28.0,15.1,58,29.99,-9999.0,Calm,Calm,-,N/A,,Unknown,0,2012-10-09 08:56:00
3:56 AM,28.9,16.0,58,29.98,-9999.0,Calm,Calm,-,N/A,,Unknown,0,2012-10-09 09:56:00
4:56 AM,28.9,17.1,61,29.99,-9999.0,Calm,Calm,-,N/A,,Unknown,0,2012-10-09 10:56:00
5:56 AM,30.0,19.0,64,30.01,-9999.0,Calm,Calm,-,N/A,,Unknown,0,2012-10-09 11:56:00
6:56 AM,30.9,19.9,64,30.05,-9999.0,Calm,Calm,-,N/A,,Unknown,0,2012-10-09 12:56:00
7:56 AM,32.0,21.9,66,30.09,-9999.0,Calm,Calm,-,N/A,,Unknown,0,2012-10-09 13:56:00
8:56 AM,36.0,25.0,64,30.11,-9999.0,Calm,Calm,-,N/A,,Unknown,0,2012-10-09 14:56:00
9:56 AM,39.0,26.1,60,30.12,-9999.0,Calm,Calm,-,N/A,,Unknown,0,2012-10-09 15:56:00
10:56 AM,39.9,26.1,58,30.14,-9999.0,WNW,5.8,-,N/A,,Unknown,300,2012-10-09 16:56:00
11:56 AM,41.0,25.0,53,30.15,-9999.0,Variable,5.8,-,N/A,,Unknown,0,2012-10-09 17:56:00
12:56 PM,42.1,23.0,47,30.14,-9999.0,NW,5.8,-,N/A,,Unknown,310,2012-10-09 18:56:00
1:56 PM,42.1,24.1,49,30.15,-9999.0,Variable,4.6,-,N/A,,Unknown,0,2012-10-09 19:56:00
2:56 PM,43.0,24.1,47,30.13,-9999.0,Variable,4.6,-,N/A,,Unknown,0,2012-10-09 20:56:00
3:56 PM,45.0,23.0,42,30.12,-9999.0,Variable,3.5,-,N/A,,Unknown,0,2012-10-09 21:56:00
4:56 PM,46.9,23.0,39,30.10,-9999.0,Calm,Calm,-,N/A,,Unknown,0,2012-10-09 22:56:00
5:56 PM,45.0,23.0,42,30.10,-9999.0,Calm,Calm,-,N/A,,Unknown,0,2012-10-09 23:56:00
6:56 PM,37.0,23.0,57,30.15,-9999.0,Calm,Calm,-,N/A,,Unknown,0,2012-10-10 00:56:00
7:56 PM,30.0,21.0,69,30.19,-9999.0,WNW,3.5,-,N/A,,Unknown,290,2012-10-10 01:56:00
8:56 PM,28.0,19.9,72,30.19,-9999.0,NW,4.6,-,N/A,,Unknown,320,2012-10-10 02:56:00
9:56 PM,27.0,19.0,72,30.19,-9999.0,Calm,Calm,-,N/A,,Unknown,0,2012-10-10 03:56:00
10:56 PM,26.1,19.0,75,30.19,-9999.0,WNW,3.5,-,N/A,,Unknown,290,2012-10-10 04:56:00
11:56 PM,25.0,19.0,78,30.19,-9999.0,Calm,Calm,-,N/A,,Unknown,0,2012-10-10 05:56:00